Time,TemperatureF,DewpointF,PressureIn,WindDirection,WindDirectionDegrees,WindSpeedMPH,WindSpeedGustMPH,Humidity,HourlyPrecipIn,Conditions,Clouds,dailyrainin,SoftwareType,DateUTC
2017-01-16 00:10:00,32.5,31.0,30.14,ENE,71,0.0,0.0,95,0.00,,,0.00,weatherlink.com 1.10,2017-01-16 06:10:00,
2017-01-16 00:25:00,32.4,31.0,30.13,ENE,71,0.0,0.0,96,0.00,,,0.00,weatherlink.com 1.10,2017-01-16 06:25:00,
2017-01-16 00:40:00,32.5,31.0,30.12,ENE,71,0.0,0.0,95,0.00,,,0.00,weatherlink.com 1.10,2017-01-16 06:40:00,
2017-01-16 00:55:00,32.5,32.0,30.12,ENE,71,0.0,0.0,96,0.00,,,0.00,weatherlink.com 1.10,2017-01-16 06:55:00,
2017-01-16 01:10:00,32.6,32.0,30.11,ENE,71,0.0,0.0,96,0.00,,,0.00,weatherlink.com 1.10,2017-01-16 07:10:00,
2017-01-16 01:25:00,32.6,32.0,30.11,ENE,71,0.0,0.0,96,0.00,,,0.00,weatherlink.com 1.10,2017-01-16 07:25:00,
2017-01-16 01:40:00,32.6,32.0,30.10,ENE,71,0.0,0.0,96,0.00,,,0.00,weatherlink.com 1.10,2017-01-16 07:40:00,
2017-01-16 01:55:00,32.5,32.0,30.10,ENE,71,0.0,0.0,96,0.00,,,0.00,weatherlink.com 1.10,2017-01-16 07:55:00,
2017-01-16 02:10:00,32.5,32.0,30.09,ENE,71,0.0,0.0,96,0.00,,,0.00,weatherlink.com 1.10,2017-01-16 08:10:00,
2017-01-16 02:25:00,32.5,32.0,30.09,ENE,71,0.0,0.0,96,0.00,,,0.00,weatherlink.com 1.10,2017-01-16 08:25:00,
2017-01-16 02:40:00,32.5,32.0,30.09,ENE,71,0.0,0.0,96,0.00,,,0.00,weatherlink.com 1.10,2017-01-16 08:40:00,
2017-01-16 02:55:00,32.5,32.0,30.09,ENE,71,0.0,0.0,96,0.00,,,0.00,weatherlink.com 1.10,2017-01-16 08:55:00,
2017-01-16 03:10:00,32.5,32.0,30.08,ENE,71,0.0,0.0,96,0.00,,,0.00,weatherlink.com 1.10,2017-01-16 09:10:00,
2017-01-16 03:25:00,32.5,32.0,30.07,ENE,71,0.0,0.0,96,0.00,,,0.00,weatherlink.com 1.10,2017-01-16 09:25:00,
2017-01-16 03:40:00,32.5,32.0,30.06,ENE,71,0.0,0.0,96,0.00,,,0.00,weatherlink.com 1.10,2017-01-16 09:40:00,
2017-01-16 03:55:00,32.5,32.0,30.05,ENE,71,0.0,0.0,96,0.00,,,0.00,weatherlink.com 1.10,2017-01-16 09:55:00,
2017-01-16 04:10:00,32.5,32.0,30.04,ENE,71,0.0,0.0,96,0.00,,,0.00,weatherlink.com 1.10,2017-01-16 10:10:00,
2017-01-16 04:25:00,32.6,32.0,30.03,ENE,71,0.0,0.0,96,0.00,,,0.00,weatherlink.com 1.10,2017-01-16 10:25:00,
2017-01-16 04:40:00,32.6,32.0,30.02,ENE,72,0.0,0.0,96,0.00,,,0.00,weatherlink.com 1.10,2017-01-16 10:40:00,
2017-01-16 04:55:00,32.6,32.0,30.01,ENE,71,0.0,0.0,96,0.00,,,0.00,weatherlink.com 1.10,2017-01-16 10:55:00,
2017-01-16 05:10:00,32.7,32.0,30.00,ENE,71,0.0,0.0,96,0.00,,,0.00,weatherlink.com 1.10,2017-01-16 11:10:00,
2017-01-16 05:25:00,32.7,32.0,30.00,ENE,71,0.0,0.0,96,0.00,,,0.00,weatherlink.com 1.10,2017-01-16 11:25:00,
2017-01-16 05:40:00,32.7,32.0,29.99,ENE,71,0.0,0.0,96,0.00,,,0.00,weatherlink.com 1.10,2017-01-16 11:40:00,
2017-01-16 05:56:00,32.7,32.0,29.99,ENE,71,0.0,0.0,96,0.00,,,0.00,weatherlink.com 1.10,2017-01-16 11:56:00,
2017-01-16 06:11:00,32.7,32.0,29.98,ENE,71,0.0,0.0,97,0.00,,,0.00,weatherlink.com 1.10,2017-01-16 12:11:00,
2017-01-16 06:26:00,32.8,32.0,29.98,ENE,71,0.0,0.0,97,0.00,,,0.00,weatherlink.com 1.10,2017-01-16 12:26:00,
2017-01-16 06:41:00,32.8,32.0,29.97,ENE,71,0.0,0.0,97,0.00,,,0.00,weatherlink.com 1.10,2017-01-16 12:41:00,
2017-01-16 06:56:00,32.8,32.0,29.97,ENE,71,0.0,0.0,97,0.00,,,0.00,weatherlink.com 1.10,2017-01-16 12:56:00,
2017-01-16 07:11:00,32.8,32.0,29.97,ENE,71,0.0,0.0,97,0.00,,,0.00,weatherlink.com 1.10,2017-01-16 13:11:00,
2017-01-16 07:26:00,32.9,32.0,29.96,ENE,71,0.0,0.0,97,0.00,,,0.00,weatherlink.com 1.10,2017-01-16 13:26:00,
2017-01-16 07:41:00,32.9,32.0,29.96,ENE,71,0.0,0.0,97,0.00,,,0.00,weatherlink.com 1.10,2017-01-16 13:41:00,
2017-01-16 07:56:00,32.9,32.0,29.95,ENE,71,0.0,0.0,97,0.00,,,0.00,weatherlink.com 1.10,2017-01-16 13:56:00,
2017-01-16 08:11:00,32.9,32.0,29.94,ENE,71,0.0,0.0,97,0.00,,,0.00,weatherlink.com 1.10,2017-01-16 14:11:00,
2017-01-16 08:26:00,33.0,32.0,29.93,ENE,71,0.0,0.0,97,0.00,,,0.00,weatherlink.com 1.10,2017-01-16 14:26:00,
2017-01-16 08:41:00,33.0,32.0,29.93,ENE,71,0.0,0.0,97,0.00,,,0.00,weatherlink.com 1.10,2017-01-16 14:41:00,
2017-01-16 08:56:00,33.1,32.0,29.93,ENE,71,0.0,0.0,97,0.00,,,0.00,weatherlink.com 1.10,2017-01-16 14:56:00,
2017-01-16 09:11:00,33.1,32.0,29.94,ENE,71,0.0,0.0,97,0.00,,,0.00,weatherlink.com 1.10,2017-01-16 15:11:00,
2017-01-16 09:26:00,33.1,32.0,29.94,ENE,71,0.0,0.0,97,0.00,,,0.00,weatherlink.com 1.10,2017-01-16 15:26:00,
2017-01-16 09:41:00,33.2,33.0,29.94,ENE,71,0.0,0.0,97,0.00,,,0.00,weatherlink.com 1.10,2017-01-16 15:41:00,
2017-01-16 15:42:00,37.6,37.0,29.86,NW,326,1.0,3.0,97,0.00,,,0.71,weatherlink.com 1.10,2017-01-16 21:42:00,
2017-01-16 15:57:00,37.4,37.0,29.86,NW,319,4.0,6.0,97,0.00,,,0.71,weatherlink.com 1.10,2017-01-16 21:57:00,
2017-01-16 16:12:00,37.1,36.0,29.86,NW,321,2.0,5.0,97,0.00,,,0.71,weatherlink.com 1.10,2017-01-16 22:12:00,
2017-01-16 16:27:00,36.8,36.0,29.87,WNW,298,6.0,7.0,97,0.00,,,0.71,weatherlink.com 1.10,2017-01-16 22:27:00,
2017-01-16 16:42:00,36.2,36.0,29.88,NW,309,5.0,7.0,97,0.01,,,0.72,weatherlink.com 1.10,2017-01-16 22:42:00,